Crane Lake, MN

4:52 AM CST on December 13, 2019 (GMT -0600)
Crane Lake

Weather History for KCDD - November, 2019

Change the Weather History Date:

Saturday, November 16, 2019

  Actual Average Record
Temperature  
Mean Temperature 31 °F -  
Max Temperature 41 °F 32 °F 50 °F (2001)
Min Temperature 21 °F 19 °F -7 °F (2002)
Degree Days  
Heating Degree Days 34    
Moisture  
Dew Point 24 °F    
Average Humidity 70    
Maximum Humidity 100    
Minimum Humidity 56    
Precipitation  
Precipitation 0.00 in - - ()
Sea Level Pressure  
Sea Level Pressure 30.02 in    
Wind  
Wind Speed 5 mph (SSE)    
Max Wind Speed 15 mph    
Max Gust Speed 24 mph    
Visibility 9 miles    
Events Rain    
Averages and records for this station are not official NWS values.
T = Trace of Precipitation, MM = Missing Value Source: NWS Daily Summary

Daily Weather History Graph

Daily Weather History Graph

Search for Another Location

Airport or City:

Astronomy

Nov. 16, 2019 Rise Set
Actual Time 7:18 AM CST 4:30 PM CST
Civil Twilight 6:44 AM CST 5:04 PM CST
Nautical Twilight 6:06 AM CST 5:42 PM CST
Astronomical Twilight 5:29 AM CST 6:19 PM CST
Moon 7:55 PM CST (11/16) 11:21 AM CST (11/16)
Length of Visible Light 10h 20m
Length of Day
9h 12m
Waning Gibbous, 82% of the Moon is Illuminated
Nov 16
Waning Gibbous
Nov 19
Last Quarter
Nov 26
New
Dec 4
First Quarter
Dec 11
Full

Hourly Weather History & Observations

Time (CST) Temp. Windchill Dew Point Humidity Pressure Visibility Wind Dir Wind Speed Gust Speed Precip Events Conditions
12:32 AM 21.2 °F 16.4 °F 15.8 °F 80% 30.28 in 10.0 mi SE 3.5 mph - N/A   Clear
12:53 AM 23.0 °F 18.4 °F 15.8 °F 74% 30.27 in 10.0 mi SE 3.5 mph - N/A   Clear
1:13 AM 23.0 °F 18.4 °F 15.8 °F 74% 30.26 in 10.0 mi SE 3.5 mph - N/A   Clear
1:33 AM 23.0 °F 17.0 °F 15.8 °F 74% 30.26 in 10.0 mi SSE 4.6 mph - N/A   Clear
1:52 AM 23.0 °F 18.4 °F 17.6 °F 80% 30.25 in 10.0 mi SE 3.5 mph - N/A   Clear
2:12 AM 23.0 °F - 17.6 °F 80% 30.24 in 10.0 mi Calm Calm - N/A   Clear
2:33 AM 23.0 °F - 17.6 °F 80% 30.22 in 10.0 mi Calm Calm - N/A   Clear
2:53 AM 24.8 °F - 17.6 °F 74% 30.21 in 10.0 mi Calm Calm - N/A   Clear
3:13 AM 24.8 °F 17.9 °F 17.6 °F 74% 30.20 in 10.0 mi SSE 5.8 mph - N/A   Clear
3:52 AM 24.8 °F 20.5 °F 17.6 °F 74% 30.18 in 10.0 mi SE 3.5 mph - N/A   Clear
4:13 AM 24.8 °F 20.5 °F 17.6 °F 74% 30.17 in 10.0 mi SE 3.5 mph - N/A   Mostly Cloudy
4:32 AM 26.6 °F - 19.4 °F 74% 30.16 in 10.0 mi Calm Calm - N/A   Scattered Clouds
4:52 AM 26.6 °F 22.6 °F 19.4 °F 74% 30.16 in 10.0 mi SSE 3.5 mph - N/A   Scattered Clouds
5:12 AM 26.6 °F 22.6 °F 19.4 °F 74% 30.15 in 10.0 mi SSE 3.5 mph - N/A   Clear
5:33 AM 28.4 °F 24.6 °F 19.4 °F 69% 30.14 in 10.0 mi SSE 3.5 mph - N/A   Clear
5:52 AM 28.4 °F 24.6 °F 19.4 °F 69% 30.13 in 10.0 mi SSE 3.5 mph - N/A   Clear
6:12 AM 28.4 °F 23.3 °F 19.4 °F 69% 30.13 in 10.0 mi SE 4.6 mph - N/A   Clear
6:32 AM 28.4 °F 22.2 °F 19.4 °F 69% 30.12 in 10.0 mi SSE 5.8 mph - N/A   Clear
6:52 AM 28.4 °F 22.2 °F 19.4 °F 69% 30.11 in 10.0 mi SSE 5.8 mph - N/A   Clear
7:13 AM 28.4 °F - 19.4 °F 69% 30.10 in 10.0 mi Calm Calm - N/A   Clear
7:32 AM 28.4 °F 24.6 °F 19.4 °F 69% 30.10 in 10.0 mi SSE 3.5 mph - N/A   Clear
7:53 AM 28.4 °F 23.3 °F 19.4 °F 69% 30.10 in 10.0 mi SSE 4.6 mph - N/A   Clear
8:12 AM 30.2 °F 26.7 °F 21.2 °F 69% 30.09 in 10.0 mi SE 3.5 mph - N/A   Clear
8:33 AM 30.2 °F 23.4 °F 21.2 °F 69% 30.08 in 10.0 mi SSE 6.9 mph - N/A   Clear
8:52 AM 30.2 °F 22.6 °F 21.2 °F 69% 30.07 in 10.0 mi SSE 8.1 mph 16.1 mph N/A   Clear
9:13 AM 32.0 °F 23.0 °F 21.2 °F 64% 30.06 in 10.0 mi SSE 11.5 mph 17.3 mph N/A   Clear
9:33 AM 33.8 °F 25.3 °F 21.2 °F 60% 30.05 in 10.0 mi SSE 11.5 mph 18.4 mph N/A   Clear
9:52 AM 33.8 °F 26.4 °F 23.0 °F 65% 30.05 in 10.0 mi SSE 9.2 mph 18.4 mph N/A   Clear
10:12 AM 37.4 °F 28.5 °F 24.8 °F 60% 30.04 in 10.0 mi South 15.0 mph 21.9 mph N/A   Clear
10:32 AM 37.4 °F 30.8 °F 24.8 °F 60% 30.03 in 10.0 mi South 9.2 mph 19.6 mph N/A   Clear
10:52 AM 39.2 °F 32.0 °F 24.8 °F 56% 30.03 in 10.0 mi SSE 11.5 mph 21.9 mph N/A   Clear
11:13 AM 39.2 °F 31.2 °F 24.8 °F 56% 30.02 in 10.0 mi South 13.8 mph 20.7 mph N/A   Clear
11:33 AM 39.2 °F 32.5 °F 26.6 °F 61% 30.00 in 10.0 mi SSE 10.4 mph 18.4 mph N/A   Clear
11:52 AM 41.0 °F 34.3 °F 26.6 °F 57% 29.99 in 10.0 mi South 11.5 mph 24.2 mph N/A   Clear
12:13 PM 39.2 °F 33.0 °F 26.6 °F 61% 29.97 in 10.0 mi SSE 9.2 mph 18.4 mph N/A   Clear
12:32 PM 39.2 °F 32.0 °F 26.6 °F 61% 29.96 in 10.0 mi SSE 11.5 mph 21.9 mph N/A   Clear
12:53 PM 41.0 °F 34.3 °F 26.6 °F 57% 29.95 in 10.0 mi SSE 11.5 mph 24.2 mph N/A   Clear
1:13 PM 39.2 °F 33.0 °F 26.6 °F 61% 29.94 in 10.0 mi SSE 9.2 mph 17.3 mph N/A   Clear
1:32 PM 39.2 °F 34.2 °F 26.6 °F 61% 29.94 in 10.0 mi South 6.9 mph 18.4 mph N/A   Clear
1:52 PM 39.2 °F 33.6 °F 26.6 °F 61% 29.94 in 10.0 mi South 8.1 mph - N/A   Clear
2:12 PM 39.2 °F 34.2 °F 26.6 °F 61% 29.93 in 10.0 mi South 6.9 mph - N/A   Clear
2:32 PM 39.2 °F 31.2 °F 26.6 °F 61% 29.91 in 10.0 mi South 13.8 mph 19.6 mph N/A   Clear
2:53 PM 39.2 °F 34.2 °F 26.6 °F 61% 29.91 in 10.0 mi South 6.9 mph 21.9 mph N/A   Clear
3:13 PM 39.2 °F 34.2 °F 26.6 °F 61% 29.92 in 10.0 mi South 6.9 mph 16.1 mph N/A   Clear
3:32 PM 39.2 °F 35.0 °F 26.6 °F 61% 29.91 in 10.0 mi South 5.8 mph - N/A   Mostly Cloudy
3:52 PM 39.2 °F 34.2 °F 26.6 °F 61% 29.91 in 10.0 mi South 6.9 mph - N/A   Overcast
4:12 PM 39.2 °F 35.0 °F 26.6 °F 61% 29.91 in 10.0 mi South 5.8 mph - N/A   Overcast
4:32 PM 39.2 °F 34.2 °F 26.6 °F 61% 29.91 in 10.0 mi South 6.9 mph - N/A   Overcast
4:52 PM 37.4 °F 33.8 °F 26.6 °F 65% 29.91 in 10.0 mi SSE 4.6 mph - N/A   Overcast
5:12 PM 37.4 °F 32.1 °F 26.6 °F 65% 29.91 in 10.0 mi SSE 6.9 mph - N/A   Overcast
5:32 PM 37.4 °F 32.1 °F 26.6 °F 65% 29.90 in 10.0 mi SSE 6.9 mph - N/A   Mostly Cloudy
5:53 PM 37.4 °F 32.1 °F 28.4 °F 70% 29.90 in 10.0 mi SSE 6.9 mph - N/A Rain Light Rain
6:12 PM 37.4 °F 31.4 °F 28.4 °F 70% 29.90 in 10.0 mi South 8.1 mph - N/A   Overcast
6:32 PM 37.4 °F 31.4 °F 28.4 °F 70% 29.90 in 10.0 mi South 8.1 mph - N/A   Mostly Cloudy
6:52 PM 37.4 °F 31.4 °F 28.4 °F 70% 29.90 in 10.0 mi South 8.1 mph - N/A   Mostly Cloudy
7:13 PM 37.4 °F 31.4 °F 28.4 °F 70% 29.90 in 10.0 mi South 8.1 mph - N/A   Scattered Clouds
7:33 PM 37.4 °F 32.8 °F 28.4 °F 70% 29.90 in 10.0 mi South 5.8 mph - N/A   Scattered Clouds
7:53 PM 37.4 °F 32.1 °F 28.4 °F 70% 29.90 in 10.0 mi South 6.9 mph - N/A   Mostly Cloudy
8:13 PM 37.4 °F 32.8 °F 28.4 °F 70% 29.89 in 10.0 mi South 5.8 mph - N/A   Overcast
9:12 PM 37.4 °F 31.4 °F 28.4 °F 70% 29.88 in 10.0 mi South 8.1 mph - N/A   Overcast
9:33 PM 35.6 °F 29.9 °F 32.0 °F 87% 29.88 in 7.0 mi South 6.9 mph - N/A Rain Light Rain
9:53 PM 35.6 °F 31.7 °F 32.0 °F 87% 29.87 in 5.0 mi South 4.6 mph - N/A Rain Light Rain
10:12 PM 33.8 °F - 32.0 °F 93% 29.87 in 5.0 mi Calm Calm - N/A   Drizzle
10:32 PM 33.8 °F 30.8 °F 32.0 °F 93% 29.87 in 5.0 mi South 3.5 mph - N/A   Drizzle
10:52 PM 33.8 °F 28.6 °F 32.0 °F 93% 29.86 in 4.0 mi South 5.8 mph - N/A Rain Rain
11:12 PM 33.8 °F 29.6 °F 33.8 °F 100% 29.86 in 4.0 mi SSW 4.6 mph - N/A Rain Light Rain
11:32 PM 33.8 °F 29.6 °F 33.8 °F 100% 29.86 in 3.0 mi South 4.6 mph - N/A Rain Light Rain
11:53 PM 33.8 °F 28.6 °F 33.8 °F 100% 29.86 in 3.0 mi South 5.8 mph - N/A Rain Light Rain